SJ-11-05

Satellite information

Favourite Embed

Satellite Type and Status

PAYLOADIN ORBIT

Key statistics

Satellite SJ-11-05 at a glance.

Uptime

4535

Days in orbit

Revolutions

≈ 14.6

Per day

Orbit

SSO

Sun Synchronous Orbit

Inclination

98.3

Latest

Satellite identification and parameters

Extended collection of information and parameters for SJ-11-05.

Object identification

Identified? True

Debris? False

Object name: SJ-11-05

International designator: 2013-035A

Object number (NORAD): 39202

Object ID (CCSDS): 39202

Country: PEOPLES REPUBLIC OF CHINA (PRC)

Current information (Y/N): Y

RCS size: LARGE

Orbital parameters

Period: 98.319 minutes

Inclination: 98.2776 deg

SMA: 7056.431 km

Apoapsis: 686.132 km

Periapsis: 670.46 km

RAAN: 164.9313 deg

Eccentricy: 0.00111046

Argument of periapsis: 99.1239 deg

Mean anomaly: 261.122 deg

Mean motion: 14.64620488 rev/day

Mean motion (dot): 0.0000135 rev/day2

B* drag term: 0.00026321781 1/REarth

Two-line elements (TLE)

Creation date: Dec. 12, 2025, 10:14 a.m.

Reference frame: TEME

Reference center: EARTH

Epoch: Dec. 12, 2025, 8:43 a.m. UTC

TLE line 0: 0 SJ-11-05

TLE line 1: 1 39202U 13035A 25346.36343608 .00001350 00000-0 26322-3 0 9998

TLE line 2: 2 39202 98.2776 164.9313 0011105 99.1239 261.1220 14.64620488661881

Live tracking on map

Real-time ground track for satellite SJ-11-05.

In-orbit conjunctions

There are no conjunctions computed for SJ-11-05, at the moment. Check back to stay up to date, as we update our databases every day.

Go to all conjunctions

Associated space launch

SJ-11-05 was lifted into orbit during the mission ‘Long March 2C | Shijian 11-05’, on board a Long March 2 space rocket.

The launch took place on July 15, 2013, 9:27 a.m. from Launch Area 94 (SLS-2 / 603).

For more information about the launch, click the button.

Launch to space Long March 2C | Shijian 11-05
Long March 2C | Shijian 11-05

Agency: N/A

Status: Launch Successful

Launch date: July 15, 2013, 9:27 a.m. UTC

Rocket: Long March 2

Launch pad: Launch Area 94 (SLS-2 / 603)

Location: Jiuquan Satellite Launch Center, People's Republic of China

...

Latest news about this satellite

There are no fresh news available about this satellite. Check back as we update our databases every day.


Newsletter sign-up

Weekly statistics, charts and insights to help you stay on top of the space industry.